Content
SEND FEEDBACK

Daily
Averages
Monthly
Summary
United States of America

JANSEN, COLORADO


Home > North America > United States > Colorado
Elevation: 6322 feet     Latitude: 37 09N     Longitude: 104 33W

WEATHER
 
SELECT A DAY
Number of Records: 264,005;   Date Range: 1/1/95 - 10/30/14
 
SHARE

PRINT THIS DATA

[ ← Previous Day ]
WEATHER ALMANAC - JANUARY 23, 2013
[ Next Day → ]
[ °C ]   °F
Weather ElementAverageHighLow
Temperature44.9 °F71.1 °F (2:54 pm)24.1 °F (4:54 am)
Dewpoint-12.1 °F-2.2 °F (11:30 pm)-26 °F (2:54 pm)
Humidity11.7 %22 % (4:54 am)4 % (11:54 am)
Barometer30.13 in30.23 in (7:54 am)30.02 in (2:54 pm)
Wind Speed10.6 mph19.6 mph (2:54 am)
Weather ElementAverage
Visibility10 mi
Wind DirectionSSW (217 °)

Weather ElementTotal
Precipitation---
Heating Degree Days17.4 (Base 65)
Averaged from 23 records on January 23, 2013
WEATHER CONDITIONS BREAKOUT
WIND DIRECTION BREAKOUT
WEATHER BY HOUR - JANUARY 23, 2013
[ °C ]   °F
Local TimeTemperatureDewpointHumidityBarometerVisibilityWind DirectionWind SpeedGust SpeedPrecipitationEventsConditions
1:54 AM33.1 °F-11.0 °F15 %30.12 in10.0 miWSW (240°)17.3 mphClear
2:54 AM34.0 °F-11.9 °F14 %30.10 in10.0 miWSW (240°)19.6 mphClear
3:54 AM32.0 °F-13.0 °F14 %30.10 in10.0 miWest (270°)15.0 mphClear
4:54 AM24.1 °F-9.9 °F22 %30.15 in10.0 miWNW (290°)11.5 mphClear
5:54 AM28.9 °F-11.9 °F17 %30.22 in10.0 miWest (270°)12.7 mphClear
6:54 AM28.0 °F-11.9 °F17 %30.22 in10.0 miWest (270°)9.2 mphClear
7:54 AM34.0 °F-9.9 °F15 %30.23 in10.0 miWest (270°)13.8 mphClear
8:54 AM42.1 °F-11.0 °F10 %30.22 in10.0 miWest (260°)13.8 mphClear
9:54 AM55.0 °F-14.1 °F5 %30.18 in10.0 miWest (260°)9.2 mphClear
10:54 AM61.0 °F-5.1 °F7 %30.15 in10.0 miSSE (150°)5.8 mphClear
11:54 AM64.0 °F-17.0 °F4 %30.11 in10.0 miESE (110°)5.8 mphClear
12:54 PM69.1 °F-23.1 °F4 %30.05 in10.0 miEast (90°)6.9 mphClear
2:54 PM71.1 °F-26.0 °F4 %30.02 in10.0 miCalmClear
3:54 PM69.1 °F-22.0 °F4 %30.02 in10.0 miEast (90°)6.9 mphClear
4:54 PM63.0 °F-20.0 °F4 %30.08 in10.0 miCalmClear
5:54 PM55.0 °F-20.0 °F4 %30.11 in10.0 miSouth (180°)6.9 mphClear
6:54 PM39.9 °F-14.1 °F10 %30.19 in10.0 miNW (310°)10.4 mphClear
7:54 PM39.9 °F-8.0 °F13 %30.16 in10.0 miWest (280°)11.5 mphClear
8:54 PM43.0 °F-5.1 °F13 %30.11 in10.0 miWest (270°)12.7 mphClear
9:54 PM37.0 °F-5.1 °F17 %30.10 in10.0 miWNW (300°)15.0 mphClear
10:54 PM41.0 °F-4.0 °F15 %30.07 in10.0 miWest (270°)13.8 mphClear
11:30 PM33.8 °F-2.2 °F22 %30.19 in10.0 miWest (270°)11.5 mphClear
11:54 PM35.1 °F-2.9 °F20 %30.08 in10.0 miWNW (300°)13.8 mphClear
Hourly data recorded from KTAD, located miles away from Jansen, Colorado







STORIES FROM OUR PARTNERS